| time (UTC) | temp C | wind direction | speed KPH | gust KPH | rain 1hr cm | rain 24hr cm | rain mn cm | humidity % | barometer mb |
| 20260507221526 | 15 | 0.0 | 0.0 | 0.00 | 0.08 | 0.00 | 71 | 1014.3 | |
| 20260507214532 | 14 | 132 | 1.6 | 3.2 | 0.00 | 0.08 | 0.08 | 74 | 1014.3 |
| 20260507211516 | 15 | 125 | 0.0 | 1.6 | 0.00 | 0.08 | 0.08 | 75 | 1014.5 |
| 20260507204522 | 15 | 134 | 0.0 | 1.6 | 0.00 | 0.08 | 0.08 | 75 | 1014.5 |
| 20260507201527 | 15 | 116 | 0.0 | 1.6 | 0.00 | 0.08 | 0.08 | 74 | 1014.6 |
| 20260507194530 | 15 | 115 | 0.0 | 1.6 | 0.00 | 0.08 | 0.08 | 73 | 1014.5 |
| 20260507191535 | 15 | 122 | 0.0 | 3.2 | 0.00 | 0.08 | 0.08 | 71 | 1014.3 |
| 20260507184521 | 16 | 119 | 1.6 | 3.2 | 0.00 | 0.08 | 0.08 | 70 | 1014.1 |
| 20260507181526 | 16 | 112 | 1.6 | 6.4 | 0.00 | 0.08 | 0.08 | 69 | 1013.9 |
| 20260507174531 | 17 | 96 | 3.2 | 6.4 | 0.00 | 0.08 | 0.08 | 70 | 1013.5 |
| 20260507171534 | 17 | 124 | 1.6 | 3.2 | 0.00 | 0.08 | 0.08 | 65 | 1013.2 |
| 20260507164519 | 21 | 107 | 1.6 | 11.3 | 0.00 | 0.08 | 0.08 | 58 | 1013.1 |
| 20260507161524 | 23 | 109 | 3.2 | 12.9 | 0.00 | 0.08 | 0.08 | 52 | 1013.1 |
| 20260507154529 | 22 | 102 | 6.4 | 16.1 | 0.00 | 0.08 | 0.08 | 55 | 1013.0 |
| 20260507151534 | 22 | 90 | 4.8 | 11.3 | 0.00 | 0.08 | 0.08 | 56 | 1013.0 |
| 20260507144516 | 22 | 82 | 6.4 | 11.3 | 0.00 | 0.08 | 0.08 | 58 | 1013.2 |
| 20260507141517 | 22 | 77 | 4.8 | 9.7 | 0.00 | 0.08 | 0.08 | 55 | 1013.2 |
| 20260507134521 | 22 | 57 | 4.8 | 11.3 | 0.00 | 0.08 | 0.08 | 54 | 1013.3 |
| 20260507131525 | 23 | 27 | 4.8 | 11.3 | 0.00 | 0.08 | 0.08 | 53 | 1013.5 |
| 20260507124531 | 23 | 231 | 0.0 | 3.2 | 0.00 | 0.08 | 0.08 | 41 | 1013.5 |
| 20260507121516 | 23 | 228 | 0.0 | 3.2 | 0.00 | 0.08 | 0.08 | 41 | 1013.6 |
| 20260507114521 | 24 | 228 | 3.2 | 9.7 | 0.00 | 0.08 | 0.08 | 43 | 1013.7 |
| 20260507111523 | 22 | 217 | 4.8 | 11.3 | 0.00 | 0.08 | 0.08 | 48 | 1013.8 |
| 20260507104526 | 22 | 235 | 4.8 | 12.9 | 0.00 | 0.08 | 0.08 | 49 | 1014.2 |
| 20260507101530 | 22 | 225 | 3.2 | 6.4 | 0.00 | 0.08 | 0.08 | 53 | 1014.3 |
| 20260507094516 | 22 | 232 | 3.2 | 9.7 | 0.00 | 0.08 | 0.08 | 54 | 1014.5 |
| 20260507091521 | 18 | 228 | 3.2 | 6.4 | 0.00 | 0.08 | 0.08 | 60 | 1014.4 |
| 20260507084526 | 19 | 235 | 4.8 | 11.3 | 0.00 | 0.08 | 0.08 | 59 | 1014.4 |
| 20260507081530 | 19 | 235 | 3.2 | 6.4 | 0.00 | 0.08 | 0.08 | 63 | 1014.1 |
| 20260507074533 | 21 | 234 | 3.2 | 9.7 | 0.00 | 0.08 | 0.08 | 57 | 1013.9 |
| 20260507071519 | 23 | 151 | 0.0 | 3.2 | 0.00 | 0.08 | 0.08 | 56 | 1013.8 |
| 20260507064524 | 22 | 254 | 0.0 | 1.6 | 0.00 | 0.08 | 0.08 | 57 | 1013.8 |
| 20260507061529 | 22 | 220 | 0.0 | 3.2 | 0.00 | 0.08 | 0.08 | 57 | 1013.6 |
| 20260507054534 | 17 | 109 | 0.0 | 1.6 | 0.00 | 0.08 | 0.08 | 77 | 1013.6 |
| 20260507051517 | 16 | 101 | 0.0 | 1.6 | 0.00 | 0.08 | 0.08 | 80 | 1013.4 |
| 20260507044519 | 14 | 140 | 0.0 | 1.6 | 0.00 | 0.08 | 0.08 | 86 | 1012.9 |
| 20260507041525 | 13 | 234 | 1.6 | 3.2 | 0.00 | 0.08 | 0.08 | 86 | 1012.6 |
| 20260507034530 | 13 | 247 | 0.0 | 1.6 | 0.00 | 0.08 | 0.08 | 89 | 1012.5 |
| 20260507031535 | 13 | 0.0 | 0.0 | 0.03 | 0.08 | 0.08 | 86 | 1012.3 | |
| 20260507024520 | 14 | 0.0 | 0.0 | 0.05 | 0.08 | 0.08 | 84 | 1012.5 | |
| 20260507021522 | 14 | 238 | 0.0 | 1.6 | 0.05 | 0.05 | 0.05 | 81 | 1012.3 |
| 20260507014524 | 15 | 0.0 | 0.0 | 0.03 | 0.03 | 0.03 | 79 | 1012.3 | |
| 20260507011526 | 15 | 226 | 0.0 | 1.6 | 0.00 | 0.00 | 0.00 | 76 | 1012.2 |
| 20260507004531 | 16 | 221 | 0.0 | 1.6 | 0.00 | 0.00 | 0.00 | 73 | 1012.2 |
| 20260507001516 | 16 | 0.0 | 0.0 | 0.00 | 0.00 | 0.00 | 72 | 1012.1 | |
| 20260506234521 | 16 | 236 | 1.6 | 4.8 | 0.00 | 0.00 | 0.00 | 71 | 1012.1 |
| 20260506231526 | 16 | 228 | 6.4 | 11.3 | 0.00 | 0.00 | 0.00 | 69 | 1012.1 |
| 20260506224530 | 17 | 220 | 3.2 | 6.4 | 0.00 | 0.00 | 0.00 | 67 | 1012.3 |